Location: Unspecified
(0.0000°N, 0.0000°E)
Time: 15:09:52
(UTC+00:00)

SR - All Passes

Search period start: 18 April 2015 00:00
Search period end: 28 April 2015 00:00
Orbit: 585 x 876 km, 66.7° (Epoch: 18 April)

Date Brightness Start Highest point End Pass type
(mag) Time Alt. Az. Time Alt. Az. Time Alt. Az.
18 Apr - 04:07:40 10° NE 04:10:24 16° ENE 04:13:31 10° ESE visible
18 Apr - 05:48:13 10° NW 05:52:22 28° WSW 05:56:43 10° S daylight
18 Apr - 16:33:08 10° S 16:38:16 44° ESE 16:43:01 10° NE daylight
18 Apr - 18:19:14 10° W 18:20:13 10° WNW 18:20:45 10° WNW visible
19 Apr - 04:58:45 10° NNW 05:03:30 74° WSW 05:08:41 10° SSE visible
19 Apr - 15:45:49 10° SSE 15:49:17 18° ESE 15:52:49 10° ENE daylight
19 Apr - 17:26:52 10° SW 17:31:24 27° WNW 17:35:30 10° NNW daylight
20 Apr - 04:10:20 10° N 04:14:45 41° ENE 04:19:37 10° SE visible
20 Apr - 05:55:30 10° W 05:57:02 11° WSW 05:58:10 10° SW daylight
20 Apr - 16:37:18 10° SSW 16:42:40 72° WNW 16:47:33 10° NNE daylight
21 Apr - 03:23:17 10° NE 03:26:00 16° ENE 03:29:07 10° ESE visible
21 Apr - 05:03:46 10° NW 05:07:58 28° WSW 05:12:23 10° S visible
21 Apr - 15:48:47 10° S 15:53:52 43° ESE 15:58:35 10° NE daylight
21 Apr - 17:34:43 10° W 17:35:49 10° WNW 17:36:28 10° WNW daylight
22 Apr - 04:14:20 10° NNW 04:19:05 75° WSW 04:24:19 10° SSE visible
22 Apr - 15:01:30 10° SSE 15:04:53 18° ESE 15:08:19 10° ENE daylight
22 Apr - 16:42:29 10° SW 16:46:59 28° WNW 16:51:05 10° NNW daylight
23 Apr - 03:25:55 10° N 03:30:21 40° ENE 03:35:14 10° SE visible
23 Apr - 05:10:51 10° W 05:12:38 11° WSW 05:14:00 10° SW visible
23 Apr - 15:52:55 10° SSW 15:58:15 74° WNW 16:03:07 10° NNE daylight
24 Apr - 02:38:53 10° NE 02:41:35 15° ENE 02:44:41 10° ESE night (unlit)
24 Apr - 04:19:17 10° NW 04:23:33 29° WSW 04:28:02 10° S visible
24 Apr - 15:04:25 10° S 15:09:27 42° ESE 15:14:07 10° NE daylight
24 Apr - 16:50:11 10° W 16:51:24 10° WNW 16:52:10 10° WNW daylight
25 Apr - 03:29:52 10° NNW 03:34:40 77° WSW 03:39:56 10° SSE night (unlit)
25 Apr - 14:17:12 10° SSE 14:20:27 17° ESE 14:23:49 10° ENE daylight
25 Apr - 15:58:04 10° SW 16:02:34 28° WNW 16:06:39 10° NNW daylight
26 Apr - 02:41:29 10° N 02:45:56 40° ENE 02:50:49 10° SE night (unlit)
26 Apr - 04:26:14 10° W 04:28:11 12° WSW 04:29:48 10° SW night (unlit)
26 Apr - 15:08:31 10° SSW 15:13:50 75° WNW 15:18:39 10° NNE daylight
27 Apr - 01:54:29 10° NE 01:57:08 15° ENE 02:00:14 10° ESE night (unlit)
27 Apr - 03:34:48 10° NW 03:39:06 30° WSW 03:43:39 10° S night (unlit)
27 Apr - 14:20:01 10° S 14:25:01 41° ESE 14:29:38 10° NE daylight
27 Apr - 16:05:39 10° W 16:06:57 11° WNW 16:07:49 10° WNW daylight
